Powrót do katalogu

KUIPER-00621

AktywnyŁącznośćLEO
NORAD 69778·PAYLOAD·🇺🇸 United States

Wystrzelony Jul 2, 2026 z Cape Canaveral Space Force Station

Loading…

Następne Przeloty (najbliższe 24 godziny)

TLE

ŚwieżeSource: CelesTrak SupGP

Epoka: Sep 15, 2026, 01:28 UTC

1 69778C 26151R   26258.06129630 -.00001363  00000+0 -17842-3 0  2589
2 69778  51.8988 253.2437 0000689 102.4106  20.6247 14.79923034    15

Śledź KUIPER-00621 w czasie rzeczywistym z AllMySat

Download on the App Store